GS1960 Weather Reports


Display with metric or nautical units.
time (UTC)temp
F
wind
direction
speed
MPH
gust
MPH
rain 1hr
in
rain 24hr
in
rain mn
in
humidity
%
barometer
mb
20260507213026 52 283 0.0 4.0 0.00 1.35 1.35 91 1014.9
20260507211517 51 276 0.0 1.0 0.00 1.35 1.35 91 1015.1
20260507210017 52 276 0.0 1.0 0.00 1.35 1.35 90 1015.1
20260507204510 53 276 0.0 1.0 0.00 1.35 1.35 90 1015.0
20260507203018 53 276 0.0 2.0 0.00 1.35 1.35 90 1014.9
20260507201517 54 293 0.0 2.0 0.00 1.35 1.35 89 1014.9
20260507200017 54 295 0.0 4.0 0.00 1.35 1.35 89 1014.8
20260507194527 55 272 0.0 2.0 0.00 1.35 1.35 89 1014.7
20260507191520 56 291 1.0 4.0 0.00 1.35 1.35 88 1014.6
20260507190019 56 321 0.0 3.0 0.00 1.35 1.35 87 1014.6
20260507184523 57 300 1.0 4.0 0.00 1.35 1.35 87 1014.6
20260507181510 58 302 2.0 4.0 0.00 1.35 1.35 86 1014.5
20260507180021 59 320 1.0 3.0 0.00 1.35 1.35 84 1014.6
20260507174504 61 273 0.0 2.0 0.00 1.35 1.35 79 1014.6
20260507173011 62 150 0.0 6.0 0.00 1.35 1.35 75 1014.5
20260507171506 63 111 1.0 5.0 0.00 1.35 1.35 74 1014.6
20260507170014 63 105 2.0 6.0 0.00 1.35 1.35 74 1014.3
20260507164517 63 143 2.0 7.0 0.00 1.35 1.35 74 1014.2
20260507163003 64 135 0.0 6.0 0.00 1.35 1.35 74 1014.3
20260507161507 64 271 1.0 7.0 0.00 1.35 1.35 73 1014.2
20260507160010 65 158 1.0 6.0 0.00 1.35 1.35 74 1014.2
20260507154511 65 46 0.0 5.0 0.00 1.35 1.35 74 1014.2
20260507151506 66 279 4.0 9.0 0.00 1.35 1.35 70 1014.4
20260507150006 64 91 4.0 9.0 0.00 1.35 1.35 73 1014.2
20260507144510 64 236 2.0 8.0 0.00 1.35 1.35 74 1014.5
20260507141520 63 77 0.0 2.0 0.00 1.35 1.35 81 1014.6
20260507140021 63 100 2.0 5.0 0.00 1.35 1.35 79 1014.5
20260507134507 64 83 2.0 11.0 0.00 1.35 1.35 79 1014.6
20260507130023 63 84 0.0 3.0 0.00 1.35 1.35 81 1014.6
20260507124527 63 248 1.0 2.0 0.00 1.35 1.35 85 1014.7
20260507121512 59 246 2.0 4.0 0.19 1.35 1.35 90 1014.7
20260507114521 57 265 1.0 3.0 0.42 1.35 1.35 91 1014.9
20260507113030 57 284 0.0 3.0 0.51 1.34 1.34 91 1015.0
20260507111511 57 283 1.0 3.0 0.34 1.16 1.16 90 1015.1
20260507110016 56 267 0.0 2.0 0.30 1.08 1.08 90 1015.1
20260507104520 56 235 0.0 1.0 0.16 0.93 0.93 90 1015.2
20260507103028 56 226 1.0 2.0 0.10 0.83 0.83 90 1015.1
20260507101534 56 265 0.0 2.0 0.13 0.82 0.82 90 1015.0
20260507100017 55 255 0.0 2.0 0.17 0.78 0.78 90 1015.2
20260507094523 54 271 0.0 7.0 0.28 0.77 0.77 90 1015.3
20260507093022 54 236 0.0 2.0 0.32 0.73 0.73 90 1015.2
20260507091506 53 295 1.0 3.0 0.48 0.69 0.69 89 1015.2
20260507090012 53 297 0.0 4.0 0.55 0.61 0.61 88 1015.2
20260507084514 53 274 2.0 8.0 0.48 0.49 0.49 87 1014.9
20260507081503 57 77 0.0 3.0 0.21 0.21 0.21 87 1014.3
20260507080005 58 224 0.0 1.0 0.06 0.06 0.06 86 1013.9
20260507074511 59 224 0.0 1.0 0.01 0.01 0.01 84 1013.9
20260507073017 61 25 0.0 0.0 0.00 0.00 0.00 79 1013.9
20260507071519 61 25 0.0 3.0 0.00 0.00 0.00 75 1013.8
20260507070010 62 116 1.0 5.0 0.00 0.00 0.00 74 1013.7
20260507064514 62 139 0.0 4.0 0.00 0.04 0.00 74 1013.5
20260507063014 62 88 3.0 6.0 0.00 0.14 0.00 72 1013.4
20260507061522 63 81 1.0 2.0 0.00 0.15 0.00 73 1013.4
20260507060021 61 110 0.0 3.0 0.00 0.15 0.00 79 1013.4
20260507054505 59 124 0.0 1.0 0.00 0.15 0.00 85 1013.3
20260507053010 58 124 0.0 1.0 0.00 0.15 0.00 87 1013.2
20260507050027 57 253 0.0 0.0 0.00 0.15 0.00 89 1012.9
20260507044524 56 252 0.0 0.0 0.00 0.15 0.00 89 1012.8
20260507043006 56 255 0.0 1.0 0.00 0.15 0.00 89 1012.6
20260507041513 56 252 0.0 0.0 0.00 0.16 0.00 89 1012.5
20260507040020 56 252 0.0 0.0 0.00 0.16 0.00 89 1012.4
20260507034521 56 252 0.0 0.0 0.00 0.16 0.00 89 1012.4
20260507033030 56 252 0.0 1.0 0.00 0.16 0.00 88 1012.4
20260507031537 57 252 0.0 1.0 0.00 0.16 0.00 88 1012.3
20260507030017 57 251 0.0 1.0 0.00 0.16 0.00 88 1012.4
20260507024522 57 113 0.0 0.0 0.00 0.20 0.00 87 1012.3
20260507023023 57 113 0.0 0.0 0.00 0.21 0.00 87 1012.3
20260507021525 58 113 0.0 0.0 0.00 0.22 0.00 85 1012.3
20260507020026 58 113 0.0 0.0 0.00 0.32 0.00 84 1012.2
20260507014521 59 113 0.0 3.0 0.00 0.42 0.00 83 1012.2
20260507013032 59 76 1.0 7.0 0.00 0.52 0.00 82 1012.1
20260507011531 59 75 3.0 6.0 0.00 0.64 0.00 83 1012.2
20260507010031 59 77 3.0 9.0 0.00 0.86 0.00 82 1012.5
20260507004526 59 77 4.0 8.0 0.00 1.07 0.00 82 1012.3
20260507003019 59 65 3.0 9.0 0.00 1.07 0.00 82 1012.3
20260507001503 59 63 4.0 8.0 0.00 1.07 0.00 81 1012.2
20260507000006 59 58 2.0 6.0 0.00 1.07 0.00 80 1012.2
20260506234509 59 72 3.0 7.0 0.00 1.07 0.00 79 1012.2
20260506233016 59 103 3.0 7.0 0.00 1.07 0.00 79 1012.4
20260506231522 59 70 3.0 9.0 0.00 1.07 0.00 79 1012.3
20260506230007 60 77 4.0 11.0 0.00 1.07 0.00 79 1012.2
20260506224506 60 101 3.0 9.0 0.00 1.07 0.00 79 1012.2
20260506223016 60 78 3.0 9.0 0.00 1.07 0.00 79 1012.3
20260506221517 60 93 2.0 11.0 0.00 1.07 0.00 79 1012.3
20260506220022 60 102 7.0 11.0 0.00 1.07 0.00 79 1012.4
20260506214525 60 81 3.0 10.0 0.00 1.07 1.07 80 1012.3